FlightSource - Aviation Photo Database

World Wide Airport Lookup


Search by ICAO
Or
Search by City

FlightSource.ca - Aviation Photo Database - Boscobel Airport Information
Airport Identification
Name: Boscobel Airport
ICAO: KOVS
IATA:
Airport Location
City: Boscobel
Region: WI
Country: United States
Continent: North America
Latitude: 43.1602
Longitude: -90.6755
Airport Information
Type: Small Airport
Elevation: 672 Feet ASL
Flight Status: KOVS
More Info: KOVS
Airport Weather    
Metar: KOVS 251053Z AUTO 25015G24KT 10SM OVC022 M03/M07 A2970 RMK AO2 PK WND 23027/1033 SLP066 T10281072
TAF:


Advertisement